Regional Weather Roundup
Issued by NWS Charleston, WV

Home | Current Version | Previous Version | Graphics & Text | Print | Product List | Glossary On
Versions: 1 2 3 4 5 6 7 8 9 10 11 12 13 14 15 16 17 18 19 20 21 22 23 24 25 26 27 28 29 30 31 32 33 34 35 36 37 38 39 40 41 42 43 44 45 46 47 48 49 50
000
ASUS41 KRLX 212310
RWRRLX
West Virginia Regional Weather Roundup
National Weather Service Charleston WV
600 PM EST TUE FEB 21 2017

Note: "fair" indicates few or no clouds below 12,000 feet with no
significant weather and/or obstructions to visibility.

WVZ003-220000-
Northern Panhandle of West Virginia

CITY           SKY/WX    TMP DP  RH WIND       PRES   REMARKS
WHEELING       CLOUDY    64  40  41 W5        29.99R
$$

WVZ009-220000-
Northwest West Virginia

CITY           SKY/WX    TMP DP  RH WIND       PRES   REMARKS
PARKERSBURG    MOCLDY    67  40  37 CALM      30.01S
$$

WVZ006-220000-
Western West Virginia

CITY           SKY/WX    TMP DP  RH WIND       PRES   REMARKS
HUNTINGTON     PTCLDY    71  40  32 CALM      29.97R
$$

WVZ015-220000-
West Central West Virginia

CITY           SKY/WX    TMP DP  RH WIND       PRES   REMARKS
CHARLESTON     CLOUDY    69  38  32 E3        29.98S
$$

WVZ022-031-220000-
North Central West Virginia

CITY           SKY/WX    TMP DP  RH WIND       PRES   REMARKS
CLARKSBURG     CLOUDY    64  39  39 SW5       30.01R
MORGANTOWN     CLOUDY    66  37  34 SW3       30.01R
$$

WVZ025-035-042-045-220000-
Southern West Virginia

CITY           SKY/WX    TMP DP  RH WIND       PRES   REMARKS
BECKLEY        CLEAR     60  40  47 SE9       30.05R
LOGAN            N/A     68  34  28 CALM      30.00S
BLUEFIELD      PTCLDY    57  40  52 S7        30.07R
LEWISBURG      PTCLDY    56  37  49 CALM      30.08R
$$

WVZ047-220000-
Northern Mountains of West Virginia

CITY           SKY/WX    TMP DP  RH WIND       PRES   REMARKS
ELKINS         MOCLDY    61  34  36 S5        30.04R
$$

WVZ052-220000-
Eastern Panhandle of West Virginia

CITY           SKY/WX    TMP DP  RH WIND       PRES   REMARKS
MARTINSBURG    CLOUDY    53  33  46 SE6       30.10F
PETERSBURG     CLOUDY    59  38  46 SE5       30.07R
$$




USA.gov is the U.S. government's official web portal to all federal, state and local government web resources and services.